Hourly Data Report for September 17, 2017

All times are specified in Local Standard Time (LST). Add 1 hour to adjust for Daylight Saving Time where and when it is observed.

KUGAARUK CLIMATE
NUNAVUT

68°32'15.060" N
89°47'47.020" W
15.80 m
2303094
71407
NBB

Download Data

Hourly Data (September 2017)
Hourly Data Report for September 17, 2017
Temp Definition
°C
Dew Point Temp Definition
°C
Rel Hum Definition
%
Wind Dir Definition
10's deg

Wind Spd Definition
km/h
Visibility Definition
km
Stn Press Definition
kPa
Hmdx Definition


Wind Chill Definition


Weather Definition


TIME
00:00 -1.0 -2.6 88 20 8   101.71   -4 LegendNANA
01:00 -1.2 -2.5 92 9 3   101.69   -2 LegendNANA
02:00 -1.1 -2.0 93 4 6   101.62   -3 LegendNANA
03:00 -0.4 -1.2 95 4 6   101.53   -2 LegendNANA
04:00 0.4 -0.2 96 2 7   101.48     LegendNANA
05:00 1.1 0.6 96 1 9   101.39     LegendNANA
06:00 2.4 1.7 95 1 10   101.31     LegendNANA
07:00 6.3 3.8 84 21 17   101.20     LegendNANA
08:00 7.2 4.1 80 20 29   101.11     LegendNANA
09:00 7.8 4.5 80 21 31   101.03     LegendNANA
10:00 9.3 5.1 75 22 32   100.99     LegendNANA
11:00 10.3 5.5 72 22 33   100.93     LegendNANA
12:00 11.2 5.7 69 22 33   100.89     LegendNANA
13:00 12.1 5.5 64 22 31   100.86     LegendNANA
14:00 11.0 5.4 68 21 30   100.81     LegendNANA
15:00 11.6 5.3 65 22 36   100.76     LegendNANA
16:00 11.6 5.2 65 21 37   100.73     LegendNANA
17:00 11.3 5.3 66 21 34   100.71     LegendNANA
18:00 10.7 5.0 68 21 36   100.69     LegendNANA
19:00 10.4 4.7 68 21 40   100.66     LegendNANA
20:00 9.9 4.7 70 21 43   100.63     LegendNANA
21:00 9.4 4.5 71 21 45   100.64     LegendNANA
22:00 9.2 4.5 73 21 39   100.66     LegendNANA
23:00 8.7 4.2 73 22 35   100.68     LegendNANA

Notes on Data Quality.

Legend

  • E = Estimated
  • M = Missing
  • NA = Not Available
  • ‡ = Partner data that is not subject to review by the National Climate Archives
Date modified: